Weather in Tverskaya

Russia / Krasnodar Krai     44°36′15″N   39°36′44″E
temp.,
°C
wind,
m/s
gust,
m/s
humid.,
%
clouds,
%
prec.,
mm/h
press.,
hPa
HPBL,
m
24 may, tue
tue2400:00+8sw2297100 0.0 100934
03:00+9ssw219494 0.1 100935
06:00+11ssw138683 0.0 1010149
09:00+16wsw345162 0.1 10101275
12:00+16w2473100 1.5 10111265
15:00+16wsw356638 3.7 10111551
18:00+14wnw357542 1.0 1013708
21:00+9s119896 1.3 101610
25 may, wed
wed2500:00+9s2297100 0.3 101658
03:00+9s229781 0.8 101744
06:00+9s119515 0.0 101925
09:00+15w12641 0.4 1019910
12:00+20nw33337 0.0 10192443
15:00+18wnw5546100 0.1 10201788
18:00+15nw117397 0.3 102132
21:00+11ssw218417 0.4 102214
26 may, thu
thu2600:00+10ssw229138 0.0 102218
03:00+9ssw119383 0.0 102317
06:00+10s228856 0.0 102259
09:00+18wsw11500 0.0 10221067
12:00+22n11347 0.0 10212328
15:00+22n333426 0.0 10192420
18:00+19nnw235663 0.0 1020849
21:00+13ssw1178100 0.0 102111
27 may, fri
fri2700:00+11sw118045 0.0 102110
03:00+10s1190100 0.0 102115
06:00+12s128193 0.0 102158
09:00+19wsw234316 0.0 1020806
12:00+23w34270 0.0 10191764
15:00+24wnw33320 0.0 10182049
18:00+21nnw13540 0.0 1018214
21:00+13sse11840 0.0 101910
28 may, sat
sat2800:00+11s11930 0.0 101810
03:00+10sse11940 0.0 101710
06:00+12s11870 0.0 101731
09:00+21ne01500 0.0 1015545
12:00+27ne13315 0.0 10141771
15:00+28nw12305 0.0 10122193
18:00+24nne23570 0.0 1013205
21:00+16sse11850 0.0 101311